"datetime","# probes","# resolvers","can_ipv6","can_ipv6_prbs","can_tcp","can_tcp_prbs","can_tcp6","can_tcp6_prbs","does_ecs","does_ecs_prbs","does_flagday","does_flagday_prbs","does_rov4","does_rov4_prbs","does_rov6","does_rov6_prbs","does_qnamemin","doesnt_qnamemin","does_qnamemin_prbs","doesnt_qnamemin_prbs","does_nxdomain","doesnt_nxdomain","does_nxdomain_prbs","doesnt_nxdomain_prbs","has_ta_19036","hasnt_ta_19036","has_ta_19036_prbs","hasnt_ta_19036_prbs","has_ta_20326","hasnt_ta_20326","has_ta_20326_prbs","hasnt_ta_20326_prbs","can_rsamd5","cannot_rsamd5","broken_rsamd5","can_rsamd5_prbs","cannot_rsamd5_prbs","broken_rsamd5_prbs","can_dsa","cannot_dsa","broken_dsa","can_dsa_prbs","cannot_dsa_prbs","broken_dsa_prbs","can_rsasha1","cannot_rsasha1","broken_rsasha1","can_rsasha1_prbs","cannot_rsasha1_prbs","broken_rsasha1_prbs","can_dsansec3","cannot_dsansec3","broken_dsansec3","can_dsansec3_prbs","cannot_dsansec3_prbs","broken_dsansec3_prbs","can_rsansec3","cannot_rsansec3","broken_rsansec3","can_rsansec3_prbs","cannot_rsansec3_prbs","broken_rsansec3_prbs","can_rsasha256","cannot_rsasha256","broken_rsasha256","can_rsasha256_prbs","cannot_rsasha256_prbs","broken_rsasha256_prbs","can_rsasha512","cannot_rsasha512","broken_rsasha512","can_rsasha512_prbs","cannot_rsasha512_prbs","broken_rsasha512_prbs","can_eccgost","cannot_eccgost","broken_eccgost","can_eccgost_prbs","cannot_eccgost_prbs","broken_eccgost_prbs","can_ecdsa256","cannot_ecdsa256","broken_ecdsa256","can_ecdsa256_prbs","cannot_ecdsa256_prbs","broken_ecdsa256_prbs","can_ecdsa384","cannot_ecdsa384","broken_ecdsa384","can_ecdsa384_prbs","cannot_ecdsa384_prbs","broken_ecdsa384_prbs","can_ed25519","cannot_ed25519","broken_ed25519","can_ed25519_prbs","cannot_ed25519_prbs","broken_ed25519_prbs","can_ed448","cannot_ed448","broken_ed448","can_ed448_prbs","cannot_ed448_prbs","broken_ed448_prbs","can_gost","cannot_gost","broken_gost","can_gost_prbs","cannot_gost_prbs","broken_gost_prbs","can_sha384","cannot_sha384","broken_sha384","can_sha384_prbs","cannot_sha384_prbs","broken_sha384_prbs","is_internal","is_forwarding","is_external","is_internal_prbs","is_forwarding_prbs","is_external_prbs"
2017-06-20T23:59:59Z,60,93,38,31,91,60,32,27,12,13,0,0,0,0,0,0,0,93,0,60,0,93,0,60,0,0,0,0,0,0,0,0,1,90,2,2,59,6,1,92,0,2,60,0,3,90,0,8,59,0,1,92,0,2,60,0,1,92,0,7,60,0,1,92,0,7,60,0,1,92,0,7,60,0,0,93,0,1,60,0,0,93,0,6,60,0,0,93,0,6,60,0,0,93,0,0,60,0,0,93,0,0,60,0,0,93,0,6,60,0,0,93,0,6,60,0,45,21,27,37,18,27
2017-06-21T23:59:48Z,60,96,40,31,96,60,34,27,11,12,0,0,0,0,0,0,0,96,0,60,0,95,0,60,0,0,0,0,0,0,0,0,1,92,3,2,58,6,1,95,0,2,60,0,3,93,0,8,59,0,1,94,0,2,60,0,1,94,0,7,60,0,2,93,0,7,59,0,1,94,0,7,60,0,0,95,0,1,60,0,0,95,0,6,60,0,0,96,0,6,60,0,0,96,0,0,60,0,0,96,0,0,60,0,1,94,0,6,59,0,0,96,0,6,60,0,46,22,28,35,20,28
2017-06-22T23:59:46Z,58,94,38,29,92,58,34,26,14,14,0,0,0,0,0,0,0,94,0,58,0,94,0,58,0,0,0,0,0,0,0,0,1,93,0,2,58,4,1,93,0,2,58,0,1,93,0,6,58,0,1,93,0,2,58,0,3,91,0,7,57,0,3,91,0,7,57,0,3,91,0,7,57,0,0,94,0,1,58,0,0,94,0,5,58,0,0,94,0,5,58,0,0,94,0,0,58,0,0,94,0,0,58,0,0,94,0,5,58,0,0,94,0,5,58,0,46,20,28,35,18,27
2017-06-23T23:59:59Z,60,94,39,30,92,60,34,27,12,13,0,0,0,0,0,0,0,94,0,60,0,94,0,60,0,0,0,0,0,0,0,0,1,93,0,2,60,5,1,93,0,2,60,0,1,93,0,7,60,0,1,93,0,2,60,0,3,91,0,8,59,0,3,91,0,8,59,0,3,91,0,8,59,0,0,94,0,1,60,0,0,94,0,6,60,0,0,94,0,6,60,0,0,94,0,0,60,0,0,94,0,0,60,0,0,94,0,6,60,0,0,94,0,6,60,0,45,23,26,35,20,26
2017-06-24T23:59:59Z,59,94,39,30,92,59,35,28,13,14,0,0,0,0,0,0,0,94,0,59,0,94,0,59,0,0,0,0,0,0,0,0,1,91,2,2,58,6,1,93,0,2,59,0,3,91,0,8,58,0,1,93,0,2,59,0,1,93,0,7,59,0,1,93,0,7,59,0,1,93,0,7,59,0,0,94,0,1,59,0,0,94,0,6,59,0,1,93,0,6,58,0,0,94,0,0,59,0,0,94,0,0,59,0,0,94,0,6,59,0,0,94,0,6,59,0,49,18,27,37,17,27
2017-06-25T23:59:48Z,59,95,40,30,92,59,36,28,12,14,0,0,0,0,0,0,0,95,0,59,0,95,0,59,0,0,0,0,0,0,0,0,2,93,0,3,58,5,1,94,0,2,59,0,1,94,0,7,59,0,1,94,0,2,59,0,1,94,0,7,59,0,1,94,0,7,59,0,2,93,0,7,58,0,0,95,0,1,59,0,0,95,0,6,59,0,1,94,0,6,58,0,0,95,0,0,59,0,0,95,0,0,59,0,1,94,0,7,58,0,0,95,0,6,59,0,47,21,27,36,18,27
2017-06-26T23:59:48Z,59,95,40,30,95,59,35,26,13,13,0,0,0,0,0,0,0,95,0,59,0,95,0,59,0,0,0,0,0,0,0,0,1,92,2,2,58,5,1,94,0,2,59,0,3,92,0,7,58,0,1,94,0,2,59,0,2,93,0,7,58,0,2,93,0,7,58,0,2,93,0,7,58,0,0,95,0,1,59,0,0,95,0,5,59,0,0,95,0,5,59,0,0,95,0,0,59,0,0,95,0,0,59,0,0,95,0,5,59,0,0,95,0,5,59,0,47,21,27,36,18,26
2017-06-27T23:59:48Z,59,94,40,31,94,59,36,28,13,14,0,0,0,0,0,0,0,94,0,59,0,94,0,59,0,0,0,0,0,0,0,0,1,92,1,2,58,5,1,93,0,2,59,0,1,93,0,7,59,0,1,93,0,2,59,0,1,93,0,7,59,0,1,93,0,7,59,0,1,93,0,7,59,0,0,94,0,1,59,0,2,92,0,7,58,0,3,91,0,7,57,0,0,94,0,0,59,0,0,94,0,0,59,0,3,91,0,8,57,0,0,94,0,6,59,0,46,21,27,35,19,27
2017-06-28T23:59:47Z,59,94,40,31,94,59,36,28,14,14,0,0,0,0,0,0,0,94,0,59,0,94,0,59,0,0,0,0,0,0,0,0,1,93,0,2,59,5,1,93,0,2,59,0,1,93,0,7,59,0,1,93,0,2,59,0,1,93,0,7,59,0,1,93,0,7,59,0,1,93,0,7,59,0,0,94,0,1,59,0,0,94,0,6,59,0,0,94,0,6,59,0,0,94,0,0,59,0,0,94,0,0,59,0,0,94,0,6,59,0,0,94,0,6,59,0,44,23,27,34,20,27
2017-06-29T23:59:48Z,60,95,41,32,91,60,35,28,13,14,0,0,0,0,0,0,0,95,0,60,0,95,0,60,0,0,0,0,0,0,0,0,2,93,0,3,59,5,1,94,0,2,60,0,1,94,0,7,60,0,1,94,0,2,60,0,1,94,0,7,60,0,1,94,0,7,60,0,1,94,0,7,60,0,0,95,0,1,60,0,0,95,0,6,60,0,1,94,0,6,59,0,0,95,0,0,60,0,0,95,0,0,60,0,0,95,0,6,60,0,0,95,0,6,60,0,50,18,27,38,17,27
2017-06-30T23:59:59Z,58,93,39,30,92,58,33,26,10,12,0,0,0,0,0,0,0,93,0,58,0,93,0,58,0,0,0,0,0,0,0,0,1,92,0,2,58,5,1,92,0,2,58,0,1,92,0,7,58,0,1,92,0,2,58,0,1,92,0,7,58,0,2,91,0,8,57,0,2,91,0,8,57,0,0,93,0,1,58,0,1,92,0,6,57,0,0,93,0,6,58,0,0,93,0,0,58,0,0,93,0,0,58,0,0,93,0,6,58,0,0,93,0,6,58,0,47,19,27,36,17,27
2017-07-01T23:59:45Z,58,94,40,30,94,58,34,26,12,13,0,0,0,0,0,0,0,94,0,58,0,94,0,58,0,0,0,0,0,0,0,0,1,91,2,2,57,6,1,93,0,2,58,0,3,91,0,8,57,0,1,93,0,2,58,0,1,93,0,7,58,0,2,92,0,7,57,0,1,93,0,7,58,0,0,94,0,1,58,0,0,94,0,6,58,0,0,94,0,6,58,0,0,94,0,0,58,0,0,94,0,0,58,0,0,94,0,6,58,0,0,94,0,6,58,0,47,19,27,35,18,27
2017-07-02T23:59:47Z,58,93,40,30,93,58,36,27,14,14,0,0,0,0,0,0,0,93,0,58,0,93,0,58,0,0,0,0,0,0,0,0,3,90,0,3,57,5,1,92,0,2,58,0,2,91,0,8,57,0,1,92,0,2,58,0,1,92,0,7,58,0,1,92,0,7,58,0,1,92,0,7,58,0,0,93,0,1,58,0,0,93,0,6,58,0,0,93,0,6,58,0,0,93,0,0,58,0,0,93,0,0,58,0,2,91,0,7,57,0,0,93,0,6,58,0,46,21,26,35,18,26
2017-07-03T23:59:46Z,59,94,41,31,91,59,35,27,13,15,0,0,0,0,0,0,0,94,0,59,0,94,0,59,0,0,0,0,0,0,0,0,1,93,0,2,59,5,1,93,0,2,59,0,1,93,0,7,59,0,1,93,0,2,59,0,1,93,0,7,59,0,1,93,0,7,59,0,2,92,0,7,58,0,0,94,0,1,59,0,2,92,0,7,58,0,2,92,0,7,58,0,0,94,0,0,59,0,0,94,0,0,59,0,0,94,0,6,59,0,0,94,0,6,59,0,45,23,26,34,20,26
2017-07-04T23:59:48Z,59,95,41,31,94,59,35,27,12,13,0,0,0,0,0,0,0,94,0,59,0,95,0,59,0,0,0,0,0,0,0,0,2,92,0,3,58,5,1,93,0,2,59,0,1,93,0,7,59,0,1,93,0,2,59,0,1,93,0,7,59,0,1,93,0,7,59,0,1,93,0,7,59,0,0,94,0,1,59,0,0,94,0,6,59,0,0,94,0,6,59,0,0,94,0,0,59,0,0,94,0,0,59,0,0,94,0,6,59,0,0,95,0,6,59,0,47,21,26,35,19,26
2017-07-05T23:59:48Z,59,95,41,32,94,59,37,29,12,14,0,0,0,0,0,0,0,94,0,59,0,95,0,59,0,0,0,0,0,0,0,0,1,90,3,2,57,8,1,93,0,2,59,0,3,91,0,9,58,0,1,93,0,2,59,0,2,92,0,8,58,0,1,93,0,8,59,0,1,93,0,8,59,0,0,94,0,1,59,0,0,94,0,7,59,0,0,94,0,7,59,0,0,94,0,0,59,0,0,94,0,0,59,0,0,94,0,7,59,0,0,95,0,7,59,0,48,20,26,36,18,26
2017-07-06T23:59:59Z,56,89,40,30,89,56,35,27,14,15,0,0,0,0,0,0,0,89,0,56,0,89,0,56,0,0,0,0,0,0,0,0,1,88,0,2,56,5,1,88,0,2,56,0,1,88,0,7,56,0,1,88,0,2,56,0,4,85,0,8,54,0,3,86,0,8,55,0,3,86,0,8,55,0,0,89,0,1,56,0,1,88,0,6,55,0,1,88,0,6,55,0,0,89,0,0,56,0,0,89,0,0,56,0,2,87,0,7,55,0,0,89,0,6,56,0,46,20,23,35,17,23
2017-07-07T23:59:48Z,58,93,41,32,93,58,36,27,14,16,0,0,0,0,0,0,0,93,0,58,0,93,0,58,0,0,0,0,0,0,0,0,1,92,0,2,58,6,1,92,0,2,58,0,1,92,0,8,58,0,1,92,0,2,58,0,2,91,0,8,57,0,1,92,0,8,58,0,1,92,0,8,58,0,0,93,0,1,58,0,0,93,0,7,58,0,0,93,0,7,58,0,0,93,0,0,58,0,0,93,0,0,58,0,0,93,0,7,58,0,0,93,0,7,58,0,45,23,25,34,20,25
2017-07-08T23:59:47Z,58,93,41,31,92,58,36,26,12,13,0,0,0,0,0,0,0,93,0,58,0,93,0,58,0,0,0,0,0,0,0,0,1,90,2,2,57,5,1,92,0,2,58,0,3,90,0,7,57,0,1,92,0,2,58,0,1,92,0,6,58,0,1,92,0,6,58,0,1,92,0,6,58,0,0,93,0,1,58,0,0,93,0,5,58,0,0,93,0,5,58,0,0,93,0,0,58,0,0,93,0,0,58,0,0,93,0,5,58,0,0,93,0,5,58,0,48,19,25,36,18,24
2017-07-09T23:59:47Z,61,98,42,32,97,61,36,27,15,15,0,0,0,0,0,0,0,98,0,61,0,98,0,61,0,0,0,0,0,0,0,0,1,95,2,2,60,6,1,97,0,2,61,0,3,95,0,8,60,0,1,97,0,2,61,0,2,96,0,7,60,0,1,97,0,7,61,0,2,96,0,7,60,0,0,98,0,1,61,0,0,98,0,6,61,0,0,98,0,6,61,0,0,98,0,0,61,0,0,98,0,0,61,0,2,96,0,7,60,0,0,98,0,6,61,0,48,23,27,37,20,27
2017-07-10T23:59:59Z,62,100,41,32,99,62,36,28,11,13,0,0,0,0,0,0,0,100,0,62,0,100,0,62,0,0,0,0,0,0,0,0,1,97,2,2,61,6,1,99,0,2,62,0,3,97,0,8,61,0,1,99,0,2,62,0,1,99,0,7,62,0,1,99,0,7,62,0,2,98,0,7,61,0,0,100,0,1,62,0,0,100,0,6,62,0,0,100,0,6,62,0,0,100,0,0,62,0,0,100,0,0,62,0,0,100,0,6,62,0,0,100,0,6,62,0,50,21,29,40,18,28
2017-07-11T23:59:59Z,60,96,40,32,96,60,35,28,12,14,0,0,0,0,0,0,0,96,0,60,0,96,0,60,0,0,0,0,0,0,0,0,1,93,2,2,59,6,1,95,0,2,60,0,3,93,0,8,59,0,1,95,0,2,60,0,1,95,0,7,60,0,1,95,0,7,60,0,1,95,0,7,60,0,0,96,0,1,60,0,1,95,0,7,59,0,1,95,0,7,59,0,0,96,0,0,60,0,0,96,0,0,60,0,0,96,0,6,60,0,0,96,0,6,60,0,48,21,27,37,20,25
2017-07-12T23:59:59Z,58,92,41,31,91,58,37,28,14,15,0,0,0,0,0,0,0,92,0,58,0,92,0,58,0,0,0,0,0,0,0,0,1,89,2,2,57,7,1,91,0,2,58,0,3,89,0,9,57,0,1,91,0,2,58,0,1,91,0,8,58,0,1,91,0,8,58,0,1,91,0,8,58,0,0,92,0,1,58,0,0,92,0,7,58,0,0,92,0,7,58,0,0,92,0,0,58,0,0,92,0,0,58,0,1,91,0,7,57,0,0,92,0,7,58,0,46,20,26,36,17,25
2017-07-13T23:59:47Z,58,90,39,31,90,58,35,27,13,15,0,0,0,0,0,0,0,90,0,58,0,90,0,58,0,0,0,0,0,0,0,0,1,89,0,2,58,6,1,89,0,2,58,0,1,89,0,8,58,0,1,89,0,2,58,0,1,89,0,8,58,0,1,89,0,8,58,0,2,88,0,8,57,0,0,90,0,1,58,0,0,90,0,7,58,0,0,90,0,7,58,0,0,90,0,0,58,0,0,90,0,0,58,0,0,90,0,7,58,0,0,90,0,7,58,0,43,20,27,35,18,26
2017-07-14T23:59:59Z,59,93,41,32,92,59,36,28,14,15,0,0,0,0,0,0,0,93,0,59,0,93,0,59,0,0,0,0,0,0,0,0,1,92,0,2,59,6,1,92,0,2,59,0,1,92,0,8,59,0,1,92,0,2,59,0,1,92,0,8,59,0,1,92,0,8,59,0,1,92,0,8,59,0,0,93,0,1,59,0,0,93,0,7,59,0,0,93,0,7,59,0,0,93,0,0,59,0,0,93,0,0,59,0,2,91,0,8,58,0,0,93,0,7,59,0,44,21,28,35,19,27
2017-07-15T23:59:59Z,59,92,40,32,91,59,34,28,15,16,0,0,0,0,0,0,0,92,0,59,0,92,0,59,0,0,0,0,0,0,0,0,1,91,0,2,59,6,1,91,0,2,59,0,1,91,0,8,59,0,1,91,0,2,59,0,1,91,0,8,59,0,1,91,0,8,59,0,1,91,0,8,59,0,0,92,0,1,59,0,0,92,0,7,59,0,1,91,0,7,58,0,0,92,0,0,59,0,0,92,0,0,59,0,0,92,0,7,59,0,0,92,0,7,59,0,43,21,28,36,18,27
2017-07-16T23:59:59Z,58,91,40,31,88,58,35,27,12,13,0,0,0,0,0,0,0,91,0,58,0,91,0,58,0,0,0,0,0,0,0,0,1,88,2,2,57,6,1,90,0,2,58,0,3,88,0,8,57,0,1,90,0,2,58,0,1,90,0,7,58,0,1,90,0,7,58,0,1,90,0,7,58,0,0,91,0,1,58,0,0,91,0,6,58,0,0,91,0,6,58,0,0,91,0,0,58,0,0,91,0,0,58,0,0,91,0,6,58,0,0,91,0,6,58,0,44,20,27,36,17,25
2017-07-17T23:59:48Z,59,92,39,31,92,59,36,28,10,13,0,0,0,0,0,0,0,92,0,59,0,92,0,59,0,0,0,0,0,0,0,0,1,89,2,2,58,7,1,91,0,2,59,0,3,89,0,9,58,0,1,91,0,2,59,0,3,89,0,9,58,0,4,88,0,9,57,0,4,88,0,9,57,0,0,92,0,1,59,0,0,92,0,7,59,0,0,92,0,7,59,0,0,92,0,0,59,0,0,92,0,0,59,0,0,92,0,7,59,0,0,92,0,7,59,0,45,21,26,37,18,26
2017-07-18T23:59:47Z,58,93,40,31,92,58,36,28,11,14,0,0,0,0,0,0,0,93,0,58,0,93,0,58,0,0,0,0,0,0,0,0,1,89,3,2,56,8,1,92,0,2,58,0,4,89,0,10,56,0,1,92,0,2,58,0,3,90,0,9,57,0,3,90,0,9,57,0,3,90,0,9,57,0,0,93,0,1,58,0,1,92,0,8,57,0,1,92,0,8,57,0,0,93,0,0,58,0,0,93,0,0,58,0,0,93,0,7,58,0,0,93,0,7,58,0,48,19,26,37,17,26
2017-07-19T23:59:48Z,60,95,39,31,95,60,33,27,12,14,0,0,0,0,0,0,0,95,0,60,0,95,0,60,0,0,0,0,0,0,0,0,1,92,2,2,59,6,1,94,0,2,60,0,3,92,0,8,59,0,1,94,0,2,60,0,1,94,0,7,60,0,1,94,0,7,60,0,1,94,0,7,60,0,0,95,0,1,60,0,0,95,0,6,60,0,0,95,0,6,60,0,0,95,0,0,60,0,0,95,0,0,60,0,0,95,0,6,60,0,0,95,0,6,60,0,49,20,26,39,17,26
2017-07-20T23:59:59Z,59,93,39,31,92,59,33,27,13,14,0,0,0,0,0,0,0,93,0,59,0,93,0,59,0,0,0,0,0,0,0,0,1,92,0,1,59,5,1,92,0,2,59,0,1,92,0,7,59,0,1,92,0,2,59,0,1,92,0,7,59,0,2,91,0,7,58,0,1,92,0,7,59,0,0,93,0,1,59,0,0,93,0,6,59,0,0,93,0,6,59,0,0,93,0,0,59,0,0,93,0,0,59,0,0,93,0,6,59,0,0,93,0,6,59,0,48,20,25,37,18,25
2017-07-21T23:59:47Z,59,93,37,30,93,59,34,27,10,12,0,0,0,0,0,0,0,93,0,59,0,93,0,59,0,0,0,0,0,0,0,0,1,92,0,1,59,5,1,92,0,2,59,0,1,92,0,7,59,0,1,92,0,2,59,0,1,92,0,7,59,0,2,91,0,7,58,0,1,92,0,7,59,0,0,93,0,1,59,0,0,93,0,6,59,0,1,92,0,6,58,0,0,93,0,0,59,0,0,93,0,0,59,0,0,93,0,6,59,0,0,93,0,6,59,0,47,20,26,36,19,26
2017-07-22T23:59:59Z,59,93,37,30,91,59,33,27,11,13,0,0,0,0,0,0,0,93,0,59,0,93,0,59,0,0,0,0,0,0,0,0,1,92,0,1,59,5,1,92,0,2,59,0,1,92,0,7,59,0,1,92,0,2,59,0,1,92,0,7,59,0,1,92,0,7,59,0,1,92,0,7,59,0,0,93,0,1,59,0,0,93,0,6,59,0,0,93,0,6,59,0,0,93,0,0,59,0,0,93,0,0,59,0,1,92,0,6,58,0,0,93,0,6,59,0,49,18,26,39,16,26
2017-07-23T23:59:59Z,56,90,36,29,90,56,34,27,11,13,0,0,0,0,0,0,0,90,0,56,0,90,0,56,0,0,0,0,0,0,0,0,1,89,0,2,56,5,1,89,0,3,56,0,1,89,0,8,56,0,1,89,0,3,56,0,1,89,0,8,56,0,1,89,0,8,56,0,1,89,0,8,56,0,0,90,0,1,56,0,0,90,0,7,56,0,0,90,0,7,56,0,0,90,0,0,56,0,0,90,0,0,56,0,0,90,0,6,56,0,0,90,0,7,56,0,48,16,26,37,15,24
2017-07-24T23:59:46Z,58,91,40,32,91,58,34,28,14,15,0,0,0,0,0,0,0,91,0,58,0,91,0,58,0,0,0,0,0,0,0,0,1,88,2,1,57,7,1,90,0,2,58,0,3,88,0,9,57,0,1,90,0,2,58,0,1,90,0,8,58,0,2,89,0,8,57,0,1,90,0,8,58,0,0,91,0,1,58,0,1,90,0,8,58,0,2,89,0,8,57,0,0,91,0,0,58,0,0,91,0,0,58,0,2,89,0,8,57,0,0,91,0,7,58,0,47,19,25,37,16,25
2017-07-25T23:59:59Z,57,91,38,31,91,57,35,28,12,14,0,0,0,0,0,0,0,91,0,57,0,91,0,57,0,0,0,0,0,0,0,0,1,88,2,1,55,7,1,90,0,2,57,0,1,90,0,8,57,0,1,90,0,2,57,0,1,90,0,8,57,0,2,89,0,8,56,0,2,89,0,8,56,0,0,91,0,1,57,0,0,91,0,7,57,0,0,91,0,7,57,0,0,91,0,0,57,0,0,91,0,0,57,0,0,91,0,7,57,0,0,91,0,7,57,0,47,18,26,37,16,25
2017-07-26T23:59:59Z,56,87,37,30,85,56,33,27,9,12,0,0,0,0,0,0,0,87,0,56,0,87,0,56,0,0,0,0,0,0,0,0,1,86,0,1,56,5,1,86,0,2,56,0,1,86,0,7,56,0,1,86,0,2,56,0,1,86,0,7,56,0,1,86,0,7,56,0,1,86,0,7,56,0,0,87,0,1,56,0,0,87,0,6,56,0,0,87,0,6,56,0,0,87,0,0,56,0,0,87,0,0,56,0,1,86,0,6,55,0,0,87,0,6,56,0,47,17,23,36,16,23
2017-07-27T23:59:59Z,55,87,36,29,87,55,33,26,10,12,0,0,0,0,0,0,0,87,0,55,0,87,0,55,0,0,0,0,0,0,0,0,1,86,0,1,55,5,1,86,0,2,55,0,1,86,0,7,55,0,1,86,0,2,55,0,1,86,0,7,55,0,2,85,0,7,54,0,1,86,0,7,55,0,0,87,0,1,55,0,0,87,0,6,55,0,0,87,0,6,55,0,0,87,0,0,55,0,0,87,0,0,55,0,0,87,0,6,55,0,0,87,0,6,55,0,45,18,24,35,16,24
2017-07-28T23:59:59Z,56,88,36,29,88,56,32,26,9,11,0,0,0,0,0,0,0,88,0,56,0,88,0,56,0,0,0,0,0,0,0,0,1,87,0,1,56,5,1,87,0,2,56,0,1,87,0,7,56,0,1,87,0,2,56,0,1,87,0,7,56,0,2,86,0,7,55,0,1,87,0,7,56,0,0,88,0,1,56,0,0,88,0,6,56,0,1,87,0,6,55,0,0,88,0,0,56,0,0,88,0,0,56,0,0,88,0,6,56,0,0,88,0,6,56,0,45,19,24,35,17,24
2017-07-29T23:59:59Z,56,89,36,29,88,56,32,26,9,11,0,0,0,0,0,0,0,89,0,56,0,89,0,56,0,0,0,0,0,0,0,0,1,87,1,1,55,6,1,88,0,2,56,0,2,87,0,8,55,0,1,88,0,2,56,0,1,88,0,7,56,0,1,88,0,7,56,0,2,87,0,7,55,0,0,89,0,1,56,0,1,88,0,6,55,0,0,89,0,6,56,0,0,89,0,0,56,0,0,89,0,0,56,0,1,88,0,7,55,0,0,89,0,6,56,0,48,16,25,37,15,25
2017-07-30T23:59:59Z,54,86,34,27,86,54,32,25,8,10,0,0,0,0,0,0,0,86,0,54,0,86,0,54,0,0,0,0,0,0,0,0,1,85,0,1,54,4,1,85,0,2,54,0,1,85,0,6,54,0,1,85,0,2,54,0,1,85,0,6,54,0,1,85,0,6,54,0,1,85,0,6,54,0,0,86,0,1,54,0,0,86,0,5,54,0,0,86,0,5,54,0,0,86,0,0,54,0,0,86,0,0,54,0,0,86,0,5,54,0,0,86,0,5,54,0,43,19,24,33,17,23
2017-07-31T23:59:59Z,56,88,35,28,88,56,32,26,10,12,0,0,0,0,0,0,0,88,0,56,0,88,0,56,0,0,0,0,0,0,0,0,1,87,0,1,56,5,1,87,0,2,56,0,1,87,0,7,56,0,1,87,0,2,56,0,1,87,0,7,56,0,2,86,0,7,55,0,1,87,0,7,56,0,0,88,0,1,56,0,0,88,0,6,56,0,1,87,0,6,55,0,0,88,0,0,56,0,0,88,0,0,56,0,0,88,0,6,56,0,0,88,0,6,56,0,45,19,24,35,17,24
2017-08-01T23:59:59Z,58,91,37,30,91,58,33,27,9,11,0,0,0,0,0,0,0,91,0,58,0,91,0,58,0,0,0,0,0,0,0,0,1,90,0,1,58,5,1,90,0,2,58,0,1,90,0,7,58,0,1,90,0,2,58,0,1,90,0,7,58,0,1,90,0,7,58,0,1,90,0,7,58,0,0,91,0,1,58,0,0,91,0,6,58,0,0,91,0,6,58,0,0,91,0,0,58,0,0,91,0,0,58,0,1,90,0,6,57,0,0,91,0,6,58,0,47,19,25,37,17,25
2017-08-02T23:59:47Z,55,88,37,28,88,55,34,26,10,11,0,0,0,0,0,0,0,88,0,55,0,88,0,55,0,0,0,0,0,0,0,0,1,87,0,1,55,4,1,87,0,2,55,0,1,87,0,6,55,0,1,87,0,2,55,0,2,86,0,6,54,0,2,86,0,6,54,0,1,87,0,6,55,0,0,88,0,1,55,0,1,87,0,5,54,0,0,88,0,5,55,0,0,88,0,0,55,0,0,88,0,0,55,0,0,88,0,5,55,0,0,88,0,5,55,0,47,17,24,37,15,23
2017-08-03T23:59:46Z,56,89,36,28,89,56,33,25,8,10,0,0,0,0,0,0,0,89,0,56,0,89,2,56,0,0,0,0,0,0,0,0,1,88,0,1,56,5,1,88,0,2,56,1,1,88,0,6,56,2,1,88,0,2,56,0,1,88,0,6,56,1,1,88,0,6,56,1,1,88,0,6,56,1,0,89,0,1,56,2,0,89,0,5,56,2,0,89,0,5,56,1,0,89,0,0,56,1,0,89,0,0,56,1,0,89,0,5,56,1,0,89,0,5,56,1,48,16,25,37,15,24
2017-08-04T23:59:59Z,58,93,39,31,93,58,34,27,9,12,0,0,0,0,0,0,0,93,0,58,0,93,0,58,0,0,0,0,0,0,0,0,1,92,0,1,58,6,1,92,0,2,58,0,1,92,0,8,58,0,1,92,0,2,58,0,1,92,0,8,58,0,1,92,0,8,58,0,1,92,0,8,58,0,0,93,0,1,58,0,0,93,0,7,58,0,0,93,0,7,58,0,0,93,0,0,58,0,0,93,0,0,58,0,0,93,0,7,58,0,0,93,0,7,58,0,50,16,27,39,15,26
2017-08-05T23:59:59Z,57,88,38,31,88,57,33,27,11,13,0,0,0,0,0,0,0,88,0,57,0,88,0,57,0,0,0,0,0,0,0,0,1,87,0,1,57,6,1,87,0,2,57,0,1,87,0,8,57,0,1,87,0,2,57,0,1,87,0,8,57,0,1,87,0,8,57,0,1,87,0,8,57,0,0,88,0,1,57,0,0,88,0,7,57,0,0,88,0,7,57,0,0,88,0,0,57,0,0,88,0,0,57,0,1,87,0,7,56,0,0,88,0,7,57,0,41,22,25,32,20,25
2017-08-06T23:59:59Z,57,89,38,31,88,57,33,27,11,13,0,0,0,0,0,0,0,89,0,57,0,89,0,57,0,0,0,0,0,0,0,0,1,88,0,1,57,6,1,88,0,2,57,0,1,88,0,8,57,0,1,88,0,2,57,0,1,88,0,8,57,0,2,87,0,8,56,0,1,88,0,8,57,0,0,89,0,1,57,0,0,89,0,7,57,0,1,88,0,7,56,0,0,89,0,0,57,0,0,89,0,0,57,0,1,88,0,7,56,0,0,89,0,7,57,0,42,22,25,33,20,24
2017-08-07T23:59:46Z,56,89,37,29,88,56,33,25,8,10,0,0,0,0,0,0,0,89,0,56,0,89,0,56,0,0,0,0,0,0,0,0,1,88,0,1,56,4,1,88,0,2,56,0,1,88,0,6,56,0,3,86,0,3,55,0,1,86,2,6,55,1,1,86,2,6,55,1,1,86,2,6,55,1,0,87,2,1,55,1,0,87,2,5,55,1,0,87,2,5,55,1,0,87,2,0,55,1,0,87,2,0,55,1,0,89,0,5,56,0,0,89,0,5,56,0,45,19,25,35,17,24
2017-08-08T23:59:59Z,57,89,38,30,88,57,34,27,10,12,0,0,0,0,0,0,0,89,0,57,0,89,0,57,0,0,0,0,0,0,0,0,1,87,1,1,56,5,1,88,0,2,57,0,1,88,0,7,57,0,1,88,0,2,57,0,1,88,0,7,57,0,1,88,0,7,57,0,2,87,0,7,56,0,0,89,0,1,57,0,0,89,0,6,57,0,0,89,0,6,57,0,0,89,0,0,57,0,0,89,0,0,57,0,0,89,0,6,57,0,0,89,0,6,57,0,45,20,24,35,18,24
2017-08-09T23:59:59Z,56,87,39,31,87,56,33,25,11,13,0,0,0,0,0,0,0,87,0,56,0,87,0,56,0,0,0,0,0,0,0,0,1,86,0,1,56,5,1,86,0,2,56,0,1,86,0,7,56,0,1,86,0,2,56,0,2,85,0,8,55,0,2,85,0,8,55,0,2,85,0,8,55,0,0,87,0,1,56,0,0,87,0,6,56,0,0,87,0,6,56,0,0,87,0,0,56,0,0,87,0,0,56,0,0,87,0,6,56,0,0,87,0,6,56,0,43,21,23,33,19,23
2017-08-10T23:59:45Z,56,88,38,30,88,56,33,24,10,12,0,0,0,0,0,0,0,88,0,56,0,88,0,56,0,0,0,0,0,0,0,0,1,87,0,1,56,4,1,87,0,2,56,0,2,86,0,7,55,0,3,85,0,3,55,0,1,85,2,6,55,1,1,85,2,6,55,1,1,85,2,6,55,1,0,86,2,1,55,1,1,85,2,6,54,1,1,87,0,6,55,0,0,88,0,0,56,0,0,88,0,0,56,0,0,88,0,5,56,0,0,88,0,5,56,0,47,17,24,36,16,23
2017-08-11T23:59:47Z,57,89,39,31,89,57,33,25,9,12,0,0,0,0,0,0,0,89,0,57,0,89,0,57,0,0,0,0,0,0,0,0,1,87,1,1,56,6,1,88,0,2,57,0,2,87,0,8,56,0,1,88,0,2,57,0,1,88,0,7,57,0,2,87,0,7,56,0,1,88,0,7,57,0,0,89,0,1,57,0,0,89,0,6,57,0,0,89,0,6,57,0,0,89,0,0,57,0,0,89,0,0,57,0,0,89,0,6,57,0,0,89,0,6,57,0,49,16,24,38,15,24
2017-08-12T23:59:59Z,56,89,38,30,88,56,34,25,10,12,0,0,0,0,0,0,0,89,1,56,0,89,0,56,0,0,0,0,0,0,0,0,1,87,1,1,55,5,1,88,0,2,56,0,1,88,0,6,56,0,1,88,0,2,56,0,1,88,0,6,56,0,1,88,0,6,56,0,1,88,0,6,56,0,0,89,0,1,56,0,0,89,0,5,56,0,0,89,0,5,56,0,0,89,0,0,56,0,0,89,0,0,56,0,0,89,0,5,56,0,0,89,0,5,56,0,47,17,25,37,15,24
2017-08-13T23:59:59Z,55,86,36,29,86,55,32,25,10,12,0,0,0,0,0,0,0,86,1,55,0,86,0,55,0,0,0,0,0,0,0,0,1,85,0,1,55,5,1,85,0,2,55,0,1,85,0,7,55,0,1,85,0,2,55,0,1,85,0,7,55,0,1,85,0,7,55,0,1,85,0,7,55,0,0,86,0,1,55,0,0,86,0,6,55,0,1,85,0,6,54,0,0,86,0,0,55,0,0,86,0,0,55,0,0,86,0,6,55,0,0,86,0,6,55,0,43,19,24,34,17,24
2017-08-14T23:59:59Z,57,89,38,31,89,57,34,27,9,12,0,0,0,0,0,0,0,89,0,57,0,89,1,57,0,0,0,0,0,0,0,0,2,87,0,2,56,6,1,88,0,2,57,1,2,87,0,8,56,1,1,88,0,2,57,1,2,87,0,7,56,1,2,87,0,8,56,1,2,87,0,7,56,1,0,89,0,1,57,1,1,88,0,6,56,1,0,89,0,6,57,1,0,89,0,0,57,1,0,89,0,0,57,1,0,89,0,6,57,1,0,89,0,6,57,1,45,19,25,36,17,25
2017-08-15T23:59:59Z,56,88,39,31,87,56,34,26,9,11,0,0,0,0,0,0,0,88,0,56,0,88,0,56,0,0,0,0,0,0,0,0,1,86,1,1,55,5,1,87,0,2,56,0,1,87,0,7,56,0,1,87,0,2,56,0,3,85,0,8,54,0,2,86,0,8,55,0,2,86,0,8,55,0,0,88,0,1,56,0,0,88,0,6,56,0,0,88,0,6,56,0,0,88,0,0,56,0,0,88,0,0,56,0,1,87,0,6,55,0,0,88,0,6,56,0,45,19,24,35,17,24
2017-08-16T23:59:59Z,56,86,39,31,86,56,33,25,10,12,0,0,0,0,0,0,0,86,1,56,0,86,0,56,0,0,0,0,0,0,0,0,1,83,2,1,54,6,1,85,0,2,56,0,2,84,0,8,55,0,1,85,0,2,56,0,1,85,0,7,56,0,1,85,0,7,56,0,1,85,0,7,56,0,0,86,0,1,56,0,0,86,0,6,56,0,0,86,0,6,56,0,0,86,0,0,56,0,0,86,0,0,56,0,0,86,0,6,56,0,0,86,0,6,56,0,45,19,22,35,17,22
2017-08-17T23:59:46Z,57,89,41,32,87,57,34,26,13,14,0,0,0,0,0,0,0,89,1,57,0,89,0,57,0,0,0,0,0,0,0,0,1,85,3,1,55,7,1,88,0,2,57,0,4,85,0,9,55,0,1,88,0,2,57,0,1,88,0,7,57,0,1,88,0,7,57,0,1,88,0,7,57,0,0,89,0,1,57,0,2,87,0,7,56,0,2,87,0,7,56,0,0,89,0,0,57,0,0,89,0,0,57,0,3,86,0,8,55,0,0,89,0,6,57,0,45,21,23,35,18,24
2017-08-18T23:59:47Z,56,87,38,31,87,56,31,25,10,12,0,0,0,0,0,0,0,87,0,56,0,87,0,56,0,0,0,0,0,0,0,0,1,86,0,1,56,5,1,86,0,2,56,0,1,86,0,7,56,0,1,86,0,2,56,0,1,86,0,7,56,0,2,85,0,7,55,0,2,85,0,7,55,0,0,87,0,1,56,0,0,87,0,6,56,0,1,86,0,6,55,0,0,87,0,0,56,0,0,87,0,0,56,0,0,87,0,6,56,0,0,87,0,6,56,0,41,22,24,32,20,24
2017-08-19T23:59:48Z,55,86,38,31,86,55,31,25,10,12,0,0,0,0,0,0,0,86,1,55,0,86,0,55,0,0,0,0,0,0,0,0,1,84,1,1,54,5,1,85,0,2,55,0,1,85,0,7,55,0,1,85,0,2,55,0,1,85,0,7,55,0,2,84,0,8,54,0,1,85,0,7,55,0,0,86,0,1,55,0,1,85,0,7,54,0,0,86,0,6,55,0,0,86,0,0,55,0,0,86,0,0,55,0,0,86,0,6,55,0,0,86,0,6,55,0,44,18,24,34,17,24
2017-08-20T23:59:59Z,54,84,37,30,84,54,33,26,11,13,0,0,0,0,0,0,0,84,0,54,0,84,0,54,0,0,0,0,0,0,0,0,1,83,0,1,54,5,1,83,0,2,54,0,1,83,0,7,54,0,1,83,0,2,54,0,2,82,0,7,53,0,2,82,0,7,53,0,1,83,0,7,54,0,0,84,0,1,54,0,0,84,0,6,54,0,0,84,0,6,54,0,0,84,0,0,54,0,0,84,0,0,54,0,0,84,0,6,54,0,0,84,0,6,54,0,42,19,23,33,17,23
2017-08-21T23:59:47Z,57,88,41,34,88,57,36,29,14,16,0,0,0,0,0,0,0,88,0,57,0,88,0,57,0,0,0,0,0,0,0,0,1,87,0,1,57,7,1,87,0,2,57,0,1,87,0,9,57,0,1,87,0,2,57,0,1,87,0,9,57,0,1,87,0,9,57,0,1,87,0,9,57,0,0,88,0,1,57,0,1,87,0,8,56,0,0,88,0,8,57,0,0,88,0,0,57,0,0,88,0,0,57,0,0,88,0,8,57,0,0,88,0,8,57,0,44,20,24,34,19,23
2017-08-22T23:59:59Z,57,87,42,34,86,57,35,28,13,15,0,0,0,0,0,0,0,87,0,57,0,87,0,57,0,0,0,0,0,0,0,0,1,85,1,1,56,7,1,86,0,2,57,0,1,86,0,9,57,0,1,86,0,2,57,0,3,84,0,11,55,0,3,84,0,11,55,0,3,84,0,10,55,0,0,87,0,1,57,0,0,87,0,8,57,0,1,86,0,9,56,0,0,87,0,0,57,0,0,87,0,0,57,0,0,87,0,8,57,0,0,87,0,8,57,0,43,20,24,34,18,24
2017-08-23T23:59:45Z,58,88,44,35,88,58,38,29,17,18,0,0,0,0,0,0,0,88,0,58,0,88,0,58,0,0,0,0,0,0,0,0,2,85,1,2,56,8,1,87,0,2,58,0,1,87,0,9,58,0,1,87,0,2,58,0,2,86,0,10,58,0,3,85,0,10,57,0,2,86,0,9,57,0,0,88,0,1,58,0,0,88,0,8,58,0,0,88,0,8,58,0,0,88,0,0,58,0,0,88,0,0,58,0,2,86,0,9,57,0,0,88,0,8,58,0,40,24,24,32,21,24
2017-08-24T23:59:59Z,56,85,40,33,85,56,34,27,12,14,0,0,0,0,0,0,0,85,1,56,0,85,0,56,0,0,0,0,0,0,0,0,1,84,0,1,56,6,1,84,0,2,56,0,1,84,0,8,56,0,1,84,0,2,56,0,2,83,0,9,55,0,2,83,0,9,55,0,2,83,0,9,55,0,0,85,0,1,56,0,1,84,0,8,55,0,1,84,0,8,55,0,0,85,0,0,56,0,0,85,0,0,56,0,0,85,0,7,56,0,0,85,0,7,56,0,38,22,25,31,20,23
2017-08-25T23:59:59Z,57,86,40,33,85,57,34,27,13,15,0,0,0,0,0,0,0,86,1,57,0,86,0,57,0,0,0,0,0,0,0,0,1,85,0,1,57,6,1,85,0,2,57,0,1,85,0,8,57,0,1,85,0,2,57,0,1,85,0,8,57,0,2,84,0,8,56,0,1,85,0,8,57,0,0,86,0,1,57,0,1,85,0,7,56,0,1,85,0,7,56,0,0,86,0,0,57,0,0,86,0,0,57,0,1,85,0,7,56,0,0,86,0,7,57,0,41,21,24,34,19,24
2017-08-26T23:59:48Z,57,86,40,34,84,57,34,28,17,18,0,0,0,0,0,0,0,86,0,57,0,86,0,57,0,0,0,0,0,0,0,0,1,83,2,1,56,8,1,85,0,2,57,0,4,82,0,10,55,0,1,85,0,2,57,0,2,84,0,9,56,0,2,84,0,9,56,0,1,85,0,9,57,0,0,86,0,1,57,0,3,83,0,9,55,0,2,84,0,9,56,0,0,86,0,0,57,0,0,86,0,0,57,0,3,83,0,9,55,0,0,86,0,8,57,0,41,22,23,33,20,23
2017-08-27T23:59:46Z,58,88,41,34,87,58,34,28,17,18,0,0,0,0,0,0,0,88,1,58,0,88,0,58,0,0,0,0,0,0,0,0,1,85,2,1,57,8,1,87,0,2,58,0,3,85,0,10,57,0,1,87,0,2,58,0,4,84,0,11,56,0,4,84,0,11,56,0,5,83,0,11,55,0,0,88,0,1,58,0,2,86,0,9,57,0,2,86,0,9,57,0,0,88,0,0,58,0,0,88,0,0,58,0,3,85,0,9,56,0,0,88,0,8,58,0,41,24,23,32,21,24